Time,TemperatureF,DewpointF,PressureIn,WindDirection,WindDirectionDegrees,WindSpeedMPH,WindSpeedGustMPH,Humidity,HourlyPrecipIn,Conditions,Clouds,dailyrainin,SoftwareType,DateUTC
2013-03-03 00:00:00,27.4,21.4,29.90,NNE,15,8.0,8.0,78,0.00,,,0.02,Wunderground v.1.15,2013-03-03 05:00:00,
2013-03-03 00:02:00,27.3,21.3,29.90,NNE,12,1.0,8.0,78,0.00,,,0.00,Wunderground v.1.15,2013-03-03 05:02:00,
2013-03-03 00:03:00,27.3,21.3,29.90,NNE,32,4.0,8.0,78,0.00,,,0.00,Wunderground v.1.15,2013-03-03 05:03:00,
2013-03-03 00:04:00,27.3,21.3,29.90,North,5,2.0,8.0,78,0.00,,,0.00,Wunderground v.1.15,2013-03-03 05:04:00,
2013-03-03 00:10:00,27.2,21.2,29.90,North,355,5.0,5.0,78,0.00,,,0.00,Wunderground v.1.15,2013-03-03 05:10:00,
2013-03-03 00:16:00,27.2,21.2,29.90,North,11,0.0,5.0,78,0.00,,,0.00,Wunderground v.1.15,2013-03-03 05:16:00,
2013-03-03 00:21:00,27.2,21.2,29.90,NNW,348,3.0,4.0,78,0.00,,,0.00,Wunderground v.1.15,2013-03-03 05:21:00,
2013-03-03 00:26:00,27.1,21.2,29.90,ENE,76,4.0,4.0,78,0.00,,,0.00,Wunderground v.1.15,2013-03-03 05:26:00,
2013-03-03 00:31:00,27.1,21.2,29.89,ENE,76,7.0,7.0,78,0.00,,,0.00,Wunderground v.1.15,2013-03-03 05:31:00,
2013-03-03 00:37:00,27.0,21.1,29.89,ENE,57,7.0,7.0,78,0.00,,,0.00,Wunderground v.1.15,2013-03-03 05:37:00,
2013-03-03 00:42:00,26.9,21.0,29.89,North,355,2.0,4.0,78,0.00,,,0.00,Wunderground v.1.15,2013-03-03 05:42:00,
2013-03-03 00:48:00,26.8,20.9,29.89,ENE,61,1.0,6.0,78,0.00,,,0.00,Wunderground v.1.15,2013-03-03 05:48:00,
2013-03-03 00:54:00,26.7,20.8,29.89,NNE,18,8.0,8.0,78,0.00,,,0.00,Wunderground v.1.15,2013-03-03 05:54:00,
2013-03-03 01:00:00,26.5,20.6,29.89,NW,323,0.0,4.0,78,0.00,,,0.00,Wunderground v.1.15,2013-03-03 06:00:00,
2013-03-03 01:05:00,26.4,20.5,29.89,NNE,20,4.0,5.0,78,0.00,,,0.00,Wunderground v.1.15,2013-03-03 06:05:00,
2013-03-03 01:10:00,26.3,20.4,29.89,NNE,30,2.0,3.0,78,0.00,,,0.00,Wunderground v.1.15,2013-03-03 06:10:00,
2013-03-03 01:15:00,26.3,20.4,29.89,NNE,16,4.0,4.0,78,0.00,,,0.00,Wunderground v.1.15,2013-03-03 06:15:00,
2013-03-03 01:21:00,26.2,20.6,29.89,North,11,2.0,2.0,79,0.00,,,0.00,Wunderground v.1.15,2013-03-03 06:21:00,
2013-03-03 01:26:00,26.2,20.3,29.89,NNE,18,4.0,4.0,78,0.00,,,0.00,Wunderground v.1.15,2013-03-03 06:26:00,
2013-03-03 01:31:00,26.2,20.3,29.90,NNW,329,5.0,5.0,78,0.00,,,0.00,Wunderground v.1.15,2013-03-03 06:31:00,
2013-03-03 01:37:00,26.2,20.0,29.90,NE,53,3.0,9.0,77,0.00,,,0.00,Wunderground v.1.15,2013-03-03 06:37:00,
2013-03-03 01:43:00,26.1,20.2,29.90,North,5,2.0,4.0,78,0.00,,,0.00,Wunderground v.1.15,2013-03-03 06:43:00,
2013-03-03 01:49:00,26.1,20.5,29.90,North,355,3.0,4.0,79,0.00,,,0.00,Wunderground v.1.15,2013-03-03 06:49:00,
2013-03-03 01:54:00,26.0,20.1,29.90,North,10,8.0,8.0,78,0.00,,,0.00,Wunderground v.1.15,2013-03-03 06:54:00,
2013-03-03 02:00:00,25.9,20.3,29.90,NW,326,2.0,3.0,79,0.00,,,0.00,Wunderground v.1.15,2013-03-03 07:00:00,
2013-03-03 02:05:00,25.9,20.0,29.90,NW,323,3.0,4.0,78,0.00,,,0.00,Wunderground v.1.15,2013-03-03 07:05:00,
2013-03-03 02:10:00,25.8,19.9,29.90,NE,44,3.0,3.0,78,0.00,,,0.00,Wunderground v.1.15,2013-03-03 07:10:00,
2013-03-03 02:15:00,25.7,19.8,29.90,West,273,4.0,7.0,78,0.00,,,0.00,Wunderground v.1.15,2013-03-03 07:15:00,
2013-03-03 02:21:00,25.6,19.7,29.90,NNW,348,0.0,3.0,78,0.00,,,0.00,Wunderground v.1.15,2013-03-03 07:21:00,
2013-03-03 02:26:00,25.5,19.6,29.90,NNW,327,0.0,4.0,78,0.00,,,0.00,Wunderground v.1.15,2013-03-03 07:26:00,
2013-03-03 02:31:00,25.4,19.8,29.89,North,360,1.0,3.0,79,0.00,,,0.00,Wunderground v.1.15,2013-03-03 07:31:00,
2013-03-03 02:36:00,25.3,19.7,29.89,NNE,19,0.0,4.0,79,0.00,,,0.00,Wunderground v.1.15,2013-03-03 07:36:00,
2013-03-03 02:41:00,25.2,19.6,29.89,NNW,347,3.0,3.0,79,0.00,,,0.00,Wunderground v.1.15,2013-03-03 07:41:00,
2013-03-03 02:46:00,25.0,19.4,29.89,NNE,14,6.0,6.0,79,0.00,,,0.00,Wunderground v.1.15,2013-03-03 07:46:00,
2013-03-03 02:51:00,24.9,19.3,29.89,NNE,19,3.0,7.0,79,0.00,,,0.00,Wunderground v.1.15,2013-03-03 07:51:00,
2013-03-03 02:56:00,24.9,19.0,29.89,NNW,348,3.0,8.0,78,0.00,,,0.00,Wunderground v.1.15,2013-03-03 07:56:00,
2013-03-03 03:02:00,24.8,19.2,29.89,ENE,66,8.0,8.0,79,0.00,,,0.00,Wunderground v.1.15,2013-03-03 08:02:00,
2013-03-03 03:07:00,24.8,19.2,29.89,NNE,25,6.0,10.0,79,0.00,,,0.00,Wunderground v.1.15,2013-03-03 08:07:00,
2013-03-03 03:12:00,24.7,19.1,29.89,NNE,13,0.0,3.0,79,0.00,,,0.00,Wunderground v.1.15,2013-03-03 08:12:00,
2013-03-03 03:17:00,24.5,18.9,29.89,NNE,17,4.0,4.0,79,0.00,,,0.00,Wunderground v.1.15,2013-03-03 08:17:00,
2013-03-03 03:22:00,24.4,18.8,29.89,North,5,1.0,2.0,79,0.00,,,0.00,Wunderground v.1.15,2013-03-03 08:22:00,
2013-03-03 03:27:00,24.4,18.5,29.89,NNE,26,2.0,5.0,78,0.00,,,0.00,Wunderground v.1.15,2013-03-03 08:27:00,
2013-03-03 03:32:00,24.4,18.5,29.89,North,5,0.0,6.0,78,0.00,,,0.00,Wunderground v.1.15,2013-03-03 08:32:00,
2013-03-03 03:37:00,24.3,18.7,29.89,NE,55,1.0,6.0,79,0.00,,,0.00,Wunderground v.1.15,2013-03-03 08:37:00,
2013-03-03 03:42:00,24.3,18.7,29.89,North,360,0.0,4.0,79,0.00,,,0.00,Wunderground v.1.15,2013-03-03 08:42:00,
2013-03-03 03:48:00,24.2,18.6,29.89,North,360,0.0,4.0,79,0.00,,,0.00,Wunderground v.1.15,2013-03-03 08:48:00,
2013-03-03 03:53:00,24.2,18.6,29.89,NNE,19,4.0,4.0,79,0.00,,,0.00,Wunderground v.1.15,2013-03-03 08:53:00,
2013-03-03 03:59:00,24.2,18.9,29.89,NE,43,3.0,4.0,80,0.00,,,0.00,Wunderground v.1.15,2013-03-03 08:59:00,
2013-03-03 04:04:00,24.1,18.8,29.88,NE,43,0.0,2.0,80,0.00,,,0.00,Wunderground v.1.15,2013-03-03 09:04:00,
2013-03-03 04:09:00,24.0,18.7,29.88,NE,36,4.0,4.0,80,0.00,,,0.00,Wunderground v.1.15,2013-03-03 09:09:00,
2013-03-03 04:14:00,23.9,18.9,29.88,NNE,22,2.0,5.0,81,0.00,,,0.00,Wunderground v.1.15,2013-03-03 09:14:00,
2013-03-03 04:19:00,23.9,18.9,29.89,WNW,291,0.0,5.0,81,0.00,,,0.00,Wunderground v.1.15,2013-03-03 09:19:00,
2013-03-03 04:24:00,23.9,18.9,29.89,WNW,287,0.0,2.0,81,0.00,,,0.00,Wunderground v.1.15,2013-03-03 09:24:00,
2013-03-03 04:29:00,23.9,18.9,29.89,NNW,334,2.0,3.0,81,0.00,,,0.00,Wunderground v.1.15,2013-03-03 09:29:00,
2013-03-03 04:34:00,23.9,19.2,29.88,North,11,0.0,4.0,82,0.00,,,0.00,Wunderground v.1.15,2013-03-03 09:34:00,
2013-03-03 04:40:00,23.9,19.2,29.88,North,11,0.0,1.0,82,0.00,,,0.00,Wunderground v.1.15,2013-03-03 09:40:00,
2013-03-03 04:45:00,23.8,19.4,29.88,NNW,344,4.0,5.0,83,0.00,,,0.00,Wunderground v.1.15,2013-03-03 09:45:00,
2013-03-03 04:50:00,23.9,19.5,29.88,NNE,22,4.0,4.0,83,0.00,,,0.00,Wunderground v.1.15,2013-03-03 09:50:00,
2013-03-03 04:55:00,23.9,19.5,29.88,ENE,57,1.0,4.0,83,0.00,,,0.00,Wunderground v.1.15,2013-03-03 09:55:00,
2013-03-03 05:00:00,23.8,19.1,29.88,NE,45,4.0,5.0,82,0.00,,,0.00,Wunderground v.1.15,2013-03-03 10:00:00,
2013-03-03 05:05:00,23.7,19.0,29.89,ENE,61,4.0,5.0,82,0.00,,,0.00,Wunderground v.1.15,2013-03-03 10:05:00,
2013-03-03 05:10:00,23.6,18.9,29.89,NNW,330,2.0,3.0,82,0.00,,,0.00,Wunderground v.1.15,2013-03-03 10:10:00,
2013-03-03 05:15:00,23.6,18.6,29.90,NE,55,2.0,6.0,81,0.00,,,0.00,Wunderground v.1.15,2013-03-03 10:15:00,
2013-03-03 05:21:00,23.4,18.4,29.90,North,355,6.0,6.0,81,0.00,,,0.00,Wunderground v.1.15,2013-03-03 10:21:00,
2013-03-03 05:26:00,23.4,18.1,29.90,NNW,331,3.0,7.0,80,0.00,,,0.00,Wunderground v.1.15,2013-03-03 10:26:00,
2013-03-03 05:31:00,23.3,18.0,29.90,NNW,348,1.0,3.0,80,0.00,,,0.00,Wunderground v.1.15,2013-03-03 10:31:00,
2013-03-03 05:36:00,23.1,18.1,29.90,North,10,3.0,3.0,81,0.00,,,0.00,Wunderground v.1.15,2013-03-03 10:36:00,
2013-03-03 05:41:00,23.0,17.7,29.90,NNW,340,0.0,3.0,80,0.00,,,0.00,Wunderground v.1.15,2013-03-03 10:41:00,
2013-03-03 05:46:00,22.9,17.4,29.90,WNW,300,0.0,5.0,79,0.00,,,0.00,Wunderground v.1.15,2013-03-03 10:46:00,
2013-03-03 05:51:00,22.8,17.6,29.90,North,10,1.0,7.0,80,0.00,,,0.00,Wunderground v.1.15,2013-03-03 10:51:00,
2013-03-03 05:56:00,22.7,17.5,29.90,North,10,1.0,7.0,80,0.00,,,0.00,Wunderground v.1.15,2013-03-03 10:56:00,
2013-03-03 06:02:00,22.7,17.5,29.91,NNE,16,0.0,2.0,80,0.00,,,0.00,Wunderground v.1.15,2013-03-03 11:02:00,
2013-03-03 06:07:00,22.5,17.3,29.91,NNW,346,1.0,4.0,80,0.00,,,0.00,Wunderground v.1.15,2013-03-03 11:07:00,
2013-03-03 06:12:00,22.5,17.0,29.91,NNE,19,0.0,4.0,79,0.00,,,0.00,Wunderground v.1.15,2013-03-03 11:12:00,
2013-03-03 06:17:00,22.5,16.7,29.91,North,349,1.0,4.0,78,0.00,,,0.00,Wunderground v.1.15,2013-03-03 11:17:00,
2013-03-03 06:22:00,22.5,16.7,29.91,North,9,2.0,3.0,78,0.00,,,0.00,Wunderground v.1.15,2013-03-03 11:22:00,
2013-03-03 06:27:00,22.5,16.7,29.91,North,5,1.0,3.0,78,0.00,,,0.00,Wunderground v.1.15,2013-03-03 11:27:00,
2013-03-03 06:33:00,22.4,16.9,29.91,NNW,327,2.0,5.0,79,0.00,,,0.00,Wunderground v.1.15,2013-03-03 11:33:00,
2013-03-03 06:38:00,22.4,16.6,29.91,West,266,2.0,5.0,78,0.00,,,0.00,Wunderground v.1.15,2013-03-03 11:38:00,
2013-03-03 06:43:00,22.5,16.4,29.91,NNE,18,1.0,4.0,77,0.00,,,0.00,Wunderground v.1.15,2013-03-03 11:43:00,
2013-03-03 06:48:00,22.5,16.7,29.91,NNW,327,0.0,4.0,78,0.00,,,0.00,Wunderground v.1.15,2013-03-03 11:48:00,
2013-03-03 06:54:00,22.4,16.6,29.91,NNE,29,0.0,3.0,78,0.00,,,0.00,Wunderground v.1.15,2013-03-03 11:54:00,
2013-03-03 06:59:00,22.4,16.6,29.91,NNE,19,2.0,3.0,78,0.00,,,0.00,Wunderground v.1.15,2013-03-03 11:59:00,
2013-03-03 07:04:00,22.4,16.6,29.91,NW,318,0.0,4.0,78,0.00,,,0.00,Wunderground v.1.15,2013-03-03 12:04:00,
2013-03-03 07:09:00,22.4,16.6,29.91,NW,318,0.0,4.0,78,0.00,,,0.00,Wunderground v.1.15,2013-03-03 12:09:00,
2013-03-03 07:14:00,22.3,16.5,29.91,ENE,66,1.0,4.0,78,0.00,,,0.00,Wunderground v.1.15,2013-03-03 12:14:00,
2013-03-03 07:19:00,22.4,16.6,29.92,NNE,24,3.0,4.0,78,0.00,,,0.00,Wunderground v.1.15,2013-03-03 12:19:00,
2013-03-03 07:25:00,22.4,16.6,29.92,North,9,2.0,4.0,78,0.00,,,0.00,Wunderground v.1.15,2013-03-03 12:25:00,
2013-03-03 07:30:00,22.5,16.7,29.92,NE,40,2.0,3.0,78,0.00,,,0.00,Wunderground v.1.15,2013-03-03 12:30:00,
2013-03-03 07:35:00,22.5,16.4,29.91,North,5,3.0,7.0,77,0.00,,,0.00,Wunderground v.1.15,2013-03-03 12:35:00,
2013-03-03 07:40:00,22.6,16.8,29.91,NNE,17,3.0,3.0,78,0.00,,,0.00,Wunderground v.1.15,2013-03-03 12:40:00,
2013-03-03 07:45:00,22.7,16.6,29.91,West,277,1.0,4.0,77,0.00,,,0.00,Wunderground v.1.15,2013-03-03 12:45:00,
2013-03-03 07:50:00,22.7,16.9,29.92,NW,324,3.0,3.0,78,0.00,,,0.00,Wunderground v.1.15,2013-03-03 12:50:00,
2013-03-03 07:55:00,22.8,16.7,29.92,NNE,18,3.0,5.0,77,0.00,,,0.00,Wunderground v.1.15,2013-03-03 12:55:00,
2013-03-03 08:00:00,22.9,16.8,29.92,NE,40,1.0,2.0,77,0.00,,,0.00,Wunderground v.1.15,2013-03-03 13:00:00,
2013-03-03 08:05:00,23.1,17.0,29.92,NW,311,0.0,6.0,77,0.00,,,0.00,Wunderground v.1.15,2013-03-03 13:05:00,
2013-03-03 08:11:00,23.1,17.0,29.92,North,11,4.0,7.0,77,0.00,,,0.00,Wunderground v.1.15,2013-03-03 13:11:00,
2013-03-03 08:16:00,23.3,16.9,29.93,North,9,2.0,11.0,76,0.00,,,0.00,Wunderground v.1.15,2013-03-03 13:16:00,
2013-03-03 08:21:00,23.4,16.9,29.93,NNE,14,4.0,4.0,76,0.00,,,0.00,Wunderground v.1.15,2013-03-03 13:21:00,
2013-03-03 08:26:00,23.5,16.7,29.93,North,355,1.0,5.0,75,0.00,,,0.00,Wunderground v.1.15,2013-03-03 13:26:00,
2013-03-03 08:31:00,23.7,17.2,29.93,NW,319,1.0,2.0,76,0.00,,,0.00,Wunderground v.1.15,2013-03-03 13:31:00,
2013-03-03 08:36:00,23.9,16.8,29.93,West,281,0.0,6.0,74,0.00,,,0.00,Wunderground v.1.15,2013-03-03 13:36:00,
2013-03-03 08:41:00,24.2,16.8,29.93,North,5,0.0,6.0,73,0.00,,,0.00,Wunderground v.1.15,2013-03-03 13:41:00,
2013-03-03 08:46:00,24.5,16.8,29.94,NW,313,5.0,6.0,72,0.00,,,0.00,Wunderground v.1.15,2013-03-03 13:46:00,
2013-03-03 08:51:00,24.8,16.7,29.94,NNW,328,3.0,5.0,71,0.00,,,0.00,Wunderground v.1.15,2013-03-03 13:51:00,
2013-03-03 08:57:00,24.9,16.5,29.94,NW,315,7.0,9.0,70,0.00,,,0.00,Wunderground v.1.15,2013-03-03 13:57:00,
2013-03-03 09:02:00,25.1,16.7,29.94,North,355,5.0,5.0,70,0.00,,,0.00,Wunderground v.1.15,2013-03-03 14:02:00,
2013-03-03 09:07:00,25.3,16.9,29.94,North,9,5.0,9.0,70,0.00,,,0.00,Wunderground v.1.15,2013-03-03 14:07:00,
2013-03-03 09:12:00,25.6,16.5,29.94,WNW,301,7.0,8.0,68,0.00,,,0.00,Wunderground v.1.15,2013-03-03 14:12:00,
2013-03-03 09:17:00,25.7,16.6,29.94,NNW,338,0.0,8.0,68,0.00,,,0.00,Wunderground v.1.15,2013-03-03 14:17:00,
2013-03-03 09:22:00,26.2,16.7,29.94,North,10,3.0,5.0,67,0.00,,,0.00,Wunderground v.1.15,2013-03-03 14:22:00,
2013-03-03 09:27:00,26.5,16.7,29.94,NNW,348,1.0,10.0,66,0.00,,,0.00,Wunderground v.1.15,2013-03-03 14:27:00,
2013-03-03 09:32:00,26.7,16.5,29.94,WNW,284,4.0,7.0,65,0.00,,,0.00,Wunderground v.1.15,2013-03-03 14:32:00,
2013-03-03 09:38:00,26.8,16.6,29.94,North,355,0.0,10.0,65,0.00,,,0.00,Wunderground v.1.15,2013-03-03 14:38:00,
2013-03-03 09:43:00,27.3,16.7,29.94,West,275,3.0,5.0,64,0.00,,,0.00,Wunderground v.1.15,2013-03-03 14:43:00,
2013-03-03 09:48:00,27.7,16.7,29.94,North,5,4.0,7.0,63,0.00,,,0.00,Wunderground v.1.15,2013-03-03 14:48:00,
2013-03-03 09:54:00,27.8,16.5,29.94,NNW,347,3.0,8.0,62,0.00,,,0.00,Wunderground v.1.15,2013-03-03 14:54:00,
2013-03-03 09:59:00,28.1,17.1,29.94,NNW,337,3.0,8.0,63,0.00,,,0.00,Wunderground v.1.15,2013-03-03 14:59:00,
2013-03-03 10:04:00,28.3,16.9,29.94,West,265,6.0,6.0,62,0.00,,,0.00,Wunderground v.1.15,2013-03-03 15:04:00,
2013-03-03 10:09:00,28.2,16.8,29.94,NW,326,3.0,8.0,62,0.00,,,0.00,Wunderground v.1.15,2013-03-03 15:09:00,
2013-03-03 10:14:00,28.4,16.7,29.94,NNW,345,6.0,12.0,61,0.00,,,0.00,Wunderground v.1.15,2013-03-03 15:14:00,
2013-03-03 10:19:00,28.4,16.7,29.94,North,355,4.0,12.0,61,0.00,,,0.00,Wunderground v.1.15,2013-03-03 15:19:00,
2013-03-03 10:24:00,28.8,17.4,29.94,NW,314,2.0,9.0,62,0.00,,,0.00,Wunderground v.1.15,2013-03-03 15:24:00,
2013-03-03 10:29:00,29.4,17.6,29.94,NNW,336,6.0,6.0,61,0.00,,,0.00,Wunderground v.1.15,2013-03-03 15:29:00,
2013-03-03 10:35:00,28.8,17.0,29.94,NNE,12,5.0,15.0,61,0.00,,,0.00,Wunderground v.1.15,2013-03-03 15:35:00,
2013-03-03 10:40:00,29.1,16.9,29.94,NW,326,1.0,5.0,60,0.00,,,0.00,Wunderground v.1.15,2013-03-03 15:40:00,
2013-03-03 10:45:00,29.0,16.8,29.94,NW,317,4.0,8.0,60,0.00,,,0.00,Wunderground v.1.15,2013-03-03 15:45:00,
2013-03-03 10:50:00,29.0,16.8,29.93,ENE,63,2.0,4.0,60,0.00,,,0.00,Wunderground v.1.15,2013-03-03 15:50:00,
2013-03-03 10:55:00,29.3,17.1,29.93,NNW,344,5.0,8.0,60,0.00,,,0.00,Wunderground v.1.15,2013-03-03 15:55:00,
2013-03-03 11:00:00,29.1,16.5,29.93,NNE,22,5.0,10.0,59,0.00,,,0.00,Wunderground v.1.15,2013-03-03 16:00:00,
2013-03-03 11:05:00,29.2,16.6,29.93,NE,34,6.0,12.0,59,0.00,,,0.00,Wunderground v.1.15,2013-03-03 16:05:00,
2013-03-03 11:11:00,29.7,18.3,29.93,NNW,340,2.0,6.0,62,0.00,,,0.00,Wunderground v.1.15,2013-03-03 16:11:00,
2013-03-03 11:16:00,30.1,17.1,29.93,WNW,299,5.0,12.0,58,0.00,,,0.00,Wunderground v.1.15,2013-03-03 16:16:00,
2013-03-03 11:21:00,30.0,17.0,29.93,NE,38,3.0,5.0,58,0.00,,,0.00,Wunderground v.1.15,2013-03-03 16:21:00,
2013-03-03 11:26:00,30.4,17.8,29.93,North,360,4.0,7.0,59,0.00,,,0.00,Wunderground v.1.15,2013-03-03 16:26:00,
2013-03-03 11:31:00,30.6,18.3,29.93,NNW,333,2.0,5.0,60,0.00,,,0.00,Wunderground v.1.15,2013-03-03 16:31:00,
2013-03-03 11:37:00,30.9,17.4,29.93,ENE,67,10.0,10.0,57,0.00,,,0.00,Wunderground v.1.15,2013-03-03 16:37:00,
2013-03-03 11:42:00,30.5,18.3,29.93,ENE,62,8.0,8.0,60,0.00,,,0.00,Wunderground v.1.15,2013-03-03 16:42:00,
2013-03-03 11:47:00,30.4,18.5,29.93,NNE,21,2.0,8.0,61,0.00,,,0.00,Wunderground v.1.15,2013-03-03 16:47:00,
2013-03-03 11:52:00,30.7,18.4,29.93,NNE,15,1.0,7.0,60,0.00,,,0.00,Wunderground v.1.15,2013-03-03 16:52:00,
2013-03-03 11:57:00,31.4,18.3,29.93,North,9,4.0,7.0,58,0.00,,,0.00,Wunderground v.1.15,2013-03-03 16:57:00,
2013-03-03 12:02:00,31.6,18.1,29.93,North,355,2.0,6.0,57,0.00,,,0.00,Wunderground v.1.15,2013-03-03 17:02:00,
2013-03-03 12:07:00,31.9,18.4,29.93,NNW,345,5.0,7.0,57,0.00,,,0.00,Wunderground v.1.15,2013-03-03 17:07:00,
2013-03-03 12:12:00,31.8,17.9,29.93,NNW,347,4.0,11.0,56,0.00,,,0.00,Wunderground v.1.15,2013-03-03 17:12:00,
2013-03-03 12:18:00,32.3,18.8,29.92,West,275,5.0,11.0,57,0.00,,,0.00,Wunderground v.1.15,2013-03-03 17:18:00,
2013-03-03 12:23:00,31.9,18.8,29.92,NNE,13,5.0,12.0,58,0.00,,,0.00,Wunderground v.1.15,2013-03-03 17:23:00,
2013-03-03 12:29:00,31.8,18.3,29.92,NNW,327,4.0,12.0,57,0.00,,,0.00,Wunderground v.1.15,2013-03-03 17:29:00,
2013-03-03 12:34:00,32.0,18.5,29.92,North,5,2.0,9.0,57,0.00,,,0.00,Wunderground v.1.15,2013-03-03 17:34:00,
2013-03-03 12:39:00,32.4,18.4,29.92,NW,321,4.0,9.0,56,0.00,,,0.00,Wunderground v.1.15,2013-03-03 17:39:00,
2013-03-03 12:44:00,31.7,17.8,29.92,NNW,331,4.0,9.0,56,0.00,,,0.00,Wunderground v.1.15,2013-03-03 17:44:00,
2013-03-03 12:49:00,31.7,18.6,29.91,North,360,4.0,9.0,58,0.00,,,0.00,Wunderground v.1.15,2013-03-03 17:49:00,
2013-03-03 12:54:00,32.3,19.2,29.91,NW,315,5.0,6.0,58,0.00,,,0.00,Wunderground v.1.15,2013-03-03 17:54:00,
2013-03-03 13:00:00,32.1,18.6,29.91,NNE,24,10.0,10.0,57,0.00,,,0.00,Wunderground v.1.15,2013-03-03 18:00:00,
2013-03-03 13:05:00,31.9,18.8,29.91,NNE,31,5.0,10.0,58,0.00,,,0.00,Wunderground v.1.15,2013-03-03 18:05:00,
2013-03-03 13:10:00,32.6,19.0,29.91,North,350,4.0,6.0,57,0.00,,,0.00,Wunderground v.1.15,2013-03-03 18:10:00,
2013-03-03 13:15:00,32.6,19.4,29.91,NNE,13,0.0,6.0,58,0.00,,,0.00,Wunderground v.1.15,2013-03-03 18:15:00,
2013-03-03 13:20:00,33.2,19.6,29.91,NNW,327,6.0,7.0,57,0.00,,,0.00,Wunderground v.1.15,2013-03-03 18:20:00,
2013-03-03 13:26:00,32.8,19.2,29.91,NNW,327,1.0,10.0,57,0.00,,,0.00,Wunderground v.1.15,2013-03-03 18:26:00,
2013-03-03 13:31:00,31.9,18.4,29.91,NE,38,5.0,9.0,57,0.00,,,0.00,Wunderground v.1.15,2013-03-03 18:31:00,
2013-03-03 13:36:00,32.2,19.5,29.91,NNW,339,4.0,9.0,59,0.00,,,0.00,Wunderground v.1.15,2013-03-03 18:36:00,
2013-03-03 13:41:00,32.4,18.4,29.91,NNE,15,3.0,7.0,56,0.00,,,0.00,Wunderground v.1.15,2013-03-03 18:41:00,
2013-03-03 13:46:00,32.4,18.4,29.91,NE,49,4.0,12.0,56,0.00,,,0.00,Wunderground v.1.15,2013-03-03 18:46:00,
2013-03-03 13:51:00,32.6,19.4,29.91,NNE,22,1.0,8.0,58,0.00,,,0.00,Wunderground v.1.15,2013-03-03 18:51:00,
2013-03-03 13:56:00,33.2,19.6,29.91,North,360,2.0,11.0,57,0.00,,,0.00,Wunderground v.1.15,2013-03-03 18:56:00,
2013-03-03 14:02:00,33.5,19.9,29.91,WNW,292,4.0,11.0,57,0.00,,,0.00,Wunderground v.1.15,2013-03-03 19:02:00,
2013-03-03 14:07:00,33.7,19.7,29.91,NW,304,1.0,11.0,56,0.00,,,0.00,Wunderground v.1.15,2013-03-03 19:07:00,
2013-03-03 14:12:00,33.7,19.2,29.91,North,11,6.0,8.0,55,0.00,,,0.00,Wunderground v.1.15,2013-03-03 19:12:00,
2013-03-03 14:17:00,33.8,19.7,29.90,NNW,344,4.0,8.0,56,0.00,,,0.00,Wunderground v.1.15,2013-03-03 19:17:00,
2013-03-03 14:22:00,34.2,19.7,29.90,NNW,346,3.0,5.0,55,0.00,,,0.00,Wunderground v.1.15,2013-03-03 19:22:00,
2013-03-03 14:27:00,33.8,19.3,29.90,NNE,19,3.0,7.0,55,0.00,,,0.00,Wunderground v.1.15,2013-03-03 19:27:00,
2013-03-03 14:32:00,33.8,19.7,29.90,NNE,18,2.0,4.0,56,0.00,,,0.00,Wunderground v.1.15,2013-03-03 19:32:00,
2013-03-03 14:37:00,34.0,19.5,29.90,NNW,345,0.0,6.0,55,0.00,,,0.00,Wunderground v.1.15,2013-03-03 19:37:00,
2013-03-03 14:42:00,33.9,19.8,29.90,NNE,24,0.0,5.0,56,0.00,,,0.00,Wunderground v.1.15,2013-03-03 19:42:00,
2013-03-03 14:48:00,33.9,19.8,29.90,North,360,0.0,5.0,56,0.00,,,0.00,Wunderground v.1.15,2013-03-03 19:48:00,
2013-03-03 14:53:00,34.2,20.5,29.90,NW,321,3.0,4.0,57,0.00,,,0.00,Wunderground v.1.15,2013-03-03 19:53:00,
2013-03-03 14:58:00,34.7,20.6,29.90,North,11,2.0,5.0,56,0.00,,,0.00,Wunderground v.1.15,2013-03-03 19:58:00,
2013-03-03 15:03:00,34.4,19.9,29.90,NNW,330,4.0,5.0,55,0.00,,,0.00,Wunderground v.1.15,2013-03-03 20:03:00,
2013-03-03 15:08:00,34.4,20.7,29.90,NW,318,2.0,6.0,57,0.00,,,0.00,Wunderground v.1.15,2013-03-03 20:08:00,
2013-03-03 15:13:00,34.1,20.0,29.90,NE,41,6.0,6.0,56,0.00,,,0.00,Wunderground v.1.15,2013-03-03 20:13:00,
2013-03-03 15:19:00,33.8,19.7,29.91,NE,52,5.0,11.0,56,0.00,,,0.00,Wunderground v.1.15,2013-03-03 20:19:00,
2013-03-03 15:24:00,33.3,19.3,29.91,North,350,3.0,7.0,56,0.00,,,0.00,Wunderground v.1.15,2013-03-03 20:24:00,
2013-03-03 15:29:00,33.1,19.1,29.91,SW,233,0.0,7.0,56,0.00,,,0.00,Wunderground v.1.15,2013-03-03 20:29:00,
2013-03-03 15:34:00,33.4,19.8,29.91,WSW,257,1.0,5.0,57,0.00,,,0.00,Wunderground v.1.15,2013-03-03 20:34:00,
2013-03-03 15:39:00,33.9,20.3,29.91,North,360,0.0,5.0,57,0.00,,,0.00,Wunderground v.1.15,2013-03-03 20:39:00,
2013-03-03 15:44:00,33.9,19.4,29.91,North,360,3.0,4.0,55,0.00,,,0.00,Wunderground v.1.15,2013-03-03 20:44:00,
2013-03-03 15:50:00,33.8,18.9,29.91,North,355,7.0,7.0,54,0.00,,,0.00,Wunderground v.1.15,2013-03-03 20:50:00,
2013-03-03 15:55:00,33.6,19.6,29.91,SW,219,1.0,7.0,56,0.00,,,0.00,Wunderground v.1.15,2013-03-03 20:55:00,
2013-03-03 16:00:00,33.5,18.6,29.91,North,5,6.0,9.0,54,0.00,,,0.00,Wunderground v.1.15,2013-03-03 21:00:00,
2013-03-03 16:05:00,33.2,18.3,29.91,NE,41,9.0,9.0,54,0.00,,,0.00,Wunderground v.1.15,2013-03-03 21:05:00,
2013-03-03 16:10:00,32.8,18.4,29.91,East,86,0.0,4.0,55,0.00,,,0.00,Wunderground v.1.15,2013-03-03 21:10:00,
2013-03-03 16:15:00,32.8,18.4,29.92,NNW,328,1.0,6.0,55,0.00,,,0.00,Wunderground v.1.15,2013-03-03 21:15:00,
2013-03-03 16:21:00,32.7,18.3,29.92,North,360,4.0,6.0,55,0.00,,,0.00,Wunderground v.1.15,2013-03-03 21:21:00,
2013-03-03 16:26:00,32.4,18.0,29.92,East,86,2.0,6.0,55,0.00,,,0.00,Wunderground v.1.15,2013-03-03 21:26:00,
2013-03-03 16:31:00,32.4,18.4,29.92,WNW,291,7.0,7.0,56,0.00,,,0.00,Wunderground v.1.15,2013-03-03 21:31:00,
2013-03-03 16:36:00,32.4,18.0,29.92,North,350,4.0,7.0,55,0.00,,,0.00,Wunderground v.1.15,2013-03-03 21:36:00,
2013-03-03 16:41:00,32.5,18.5,29.92,WNW,303,1.0,3.0,56,0.00,,,0.00,Wunderground v.1.15,2013-03-03 21:41:00,
2013-03-03 16:46:00,32.3,18.3,29.92,North,355,3.0,8.0,56,0.00,,,0.00,Wunderground v.1.15,2013-03-03 21:46:00,
2013-03-03 16:51:00,31.8,17.9,29.92,NNW,341,3.0,7.0,56,0.00,,,0.00,Wunderground v.1.15,2013-03-03 21:51:00,
2013-03-03 16:57:00,31.4,17.9,29.92,WSW,248,4.0,7.0,57,0.00,,,0.00,Wunderground v.1.15,2013-03-03 21:57:00,
2013-03-03 17:02:00,31.3,18.2,29.92,North,11,6.0,7.0,58,0.00,,,0.00,Wunderground v.1.15,2013-03-03 22:02:00,
2013-03-03 17:07:00,31.2,18.1,29.92,WNW,301,5.0,7.0,58,0.00,,,0.00,Wunderground v.1.15,2013-03-03 22:07:00,
2013-03-03 17:12:00,31.0,17.9,29.92,NNW,344,3.0,5.0,58,0.00,,,0.00,Wunderground v.1.15,2013-03-03 22:12:00,
2013-03-03 17:18:00,30.9,17.8,29.93,NNE,25,4.0,8.0,58,0.00,,,0.00,Wunderground v.1.15,2013-03-03 22:18:00,
2013-03-03 17:23:00,30.6,18.0,29.93,East,82,2.0,7.0,59,0.00,,,0.00,Wunderground v.1.15,2013-03-03 22:23:00,
2013-03-03 17:28:00,30.6,18.0,29.93,SSW,209,3.0,8.0,59,0.00,,,0.00,Wunderground v.1.15,2013-03-03 22:28:00,
2013-03-03 17:33:00,30.3,17.7,29.94,NNW,348,4.0,11.0,59,0.00,,,0.00,Wunderground v.1.15,2013-03-03 22:33:00,
2013-03-03 17:38:00,30.1,18.3,29.94,North,355,2.0,11.0,61,0.00,,,0.00,Wunderground v.1.15,2013-03-03 22:38:00,
2013-03-03 17:43:00,30.0,17.8,29.94,NW,305,1.0,5.0,60,0.00,,,0.00,Wunderground v.1.15,2013-03-03 22:43:00,
2013-03-03 17:49:00,29.8,17.6,29.95,NW,312,2.0,6.0,60,0.00,,,0.00,Wunderground v.1.15,2013-03-03 22:49:00,
2013-03-03 17:54:00,29.7,17.9,29.95,NW,305,1.0,4.0,61,0.00,,,0.00,Wunderground v.1.15,2013-03-03 22:54:00,
2013-03-03 17:59:00,29.5,17.3,29.95,NE,39,0.0,7.0,60,0.00,,,0.00,Wunderground v.1.15,2013-03-03 22:59:00,
2013-03-03 18:05:00,29.3,17.5,29.95,NE,55,3.0,3.0,61,0.00,,,0.00,Wunderground v.1.15,2013-03-03 23:05:00,
2013-03-03 18:10:00,29.2,17.4,29.95,NNE,15,5.0,5.0,61,0.00,,,0.00,Wunderground v.1.15,2013-03-03 23:10:00,
2013-03-03 18:15:00,29.0,17.6,29.95,ENE,57,2.0,5.0,62,0.00,,,0.00,Wunderground v.1.15,2013-03-03 23:15:00,
2013-03-03 18:20:00,28.8,17.4,29.95,NNW,344,3.0,3.0,62,0.00,,,0.00,Wunderground v.1.15,2013-03-03 23:20:00,
2013-03-03 18:25:00,28.6,17.2,29.95,NW,323,1.0,6.0,62,0.00,,,0.00,Wunderground v.1.15,2013-03-03 23:25:00,
2013-03-03 18:30:00,28.4,17.4,29.95,North,355,1.0,2.0,63,0.00,,,0.00,Wunderground v.1.15,2013-03-03 23:30:00,
2013-03-03 18:35:00,28.3,17.3,29.95,North,355,0.0,4.0,63,0.00,,,0.00,Wunderground v.1.15,2013-03-03 23:35:00,
2013-03-03 18:41:00,28.1,17.1,29.95,NNE,26,2.0,5.0,63,0.00,,,0.00,Wunderground v.1.15,2013-03-03 23:41:00,
2013-03-03 18:46:00,27.9,17.3,29.96,NE,54,6.0,6.0,64,0.00,,,0.00,Wunderground v.1.15,2013-03-03 23:46:00,
2013-03-03 18:51:00,27.8,17.2,29.96,NNE,32,4.0,4.0,64,0.00,,,0.00,Wunderground v.1.15,2013-03-03 23:51:00,
2013-03-03 18:56:00,27.7,16.7,29.96,North,360,1.0,5.0,63,0.00,,,0.00,Wunderground v.1.15,2013-03-03 23:56:00,
2013-03-03 19:01:00,27.5,16.9,29.97,North,360,5.0,5.0,64,0.00,,,0.00,Wunderground v.1.15,2013-03-04 00:01:00,
2013-03-03 19:06:00,27.5,16.5,29.97,NE,40,3.0,8.0,63,0.00,,,0.00,Wunderground v.1.15,2013-03-04 00:06:00,
2013-03-03 19:11:00,27.4,16.8,29.97,NE,53,3.0,4.0,64,0.00,,,0.00,Wunderground v.1.15,2013-03-04 00:11:00,
2013-03-03 19:16:00,27.3,16.4,29.98,NE,50,6.0,6.0,63,0.00,,,0.00,Wunderground v.1.15,2013-03-04 00:16:00,
2013-03-03 19:21:00,27.2,16.6,29.98,NE,53,2.0,5.0,64,0.00,,,0.00,Wunderground v.1.15,2013-03-04 00:21:00,
2013-03-03 19:26:00,27.0,16.4,29.98,NE,54,2.0,5.0,64,0.00,,,0.00,Wunderground v.1.15,2013-03-04 00:26:00,
2013-03-03 19:31:00,27.0,16.4,29.98,NNE,22,2.0,2.0,64,0.00,,,0.00,Wunderground v.1.15,2013-03-04 00:31:00,
2013-03-03 19:37:00,26.9,16.7,29.98,East,91,3.0,8.0,65,0.00,,,0.00,Wunderground v.1.15,2013-03-04 00:37:00,
2013-03-03 19:42:00,26.8,16.6,29.98,NNW,342,2.0,3.0,65,0.00,,,0.00,Wunderground v.1.15,2013-03-04 00:42:00,
2013-03-03 19:47:00,26.7,16.5,29.98,NNW,343,0.0,3.0,65,0.00,,,0.00,Wunderground v.1.15,2013-03-04 00:47:00,
2013-03-03 19:52:00,26.5,16.7,29.98,ENE,61,1.0,2.0,66,0.00,,,0.00,Wunderground v.1.15,2013-03-04 00:52:00,
2013-03-03 19:57:00,26.4,16.9,29.98,NE,51,2.0,2.0,67,0.00,,,0.00,Wunderground v.1.15,2013-03-04 00:57:00,
2013-03-03 20:02:00,26.3,16.5,29.98,NNE,29,0.0,3.0,66,0.00,,,0.00,Wunderground v.1.15,2013-03-04 01:02:00,
2013-03-03 20:07:00,26.2,16.7,29.98,North,11,0.0,4.0,67,0.00,,,0.00,Wunderground v.1.15,2013-03-04 01:07:00,
2013-03-03 20:12:00,26.2,16.7,29.98,East,87,3.0,3.0,67,0.00,,,0.00,Wunderground v.1.15,2013-03-04 01:12:00,
2013-03-03 20:17:00,26.2,16.7,29.98,NE,46,2.0,6.0,67,0.00,,,0.00,Wunderground v.1.15,2013-03-04 01:17:00,
2013-03-03 20:23:00,26.2,16.7,29.98,NNW,341,1.0,4.0,67,0.00,,,0.00,Wunderground v.1.15,2013-03-04 01:23:00,
2013-03-03 20:28:00,26.2,16.7,29.98,NNW,340,6.0,6.0,67,0.00,,,0.00,Wunderground v.1.15,2013-03-04 01:28:00,
2013-03-03 20:33:00,26.1,17.0,29.98,NE,40,0.0,6.0,68,0.00,,,0.00,Wunderground v.1.15,2013-03-04 01:33:00,
2013-03-03 20:38:00,26.1,17.0,29.98,NNE,26,6.0,6.0,68,0.00,,,0.00,Wunderground v.1.15,2013-03-04 01:38:00,
2013-03-03 20:44:00,25.9,17.1,29.98,NNE,13,2.0,2.0,69,0.00,,,0.00,Wunderground v.1.15,2013-03-04 01:44:00,
2013-03-03 20:49:00,25.8,16.7,29.98,NNE,12,2.0,5.0,68,0.00,,,0.00,Wunderground v.1.15,2013-03-04 01:49:00,
2013-03-03 20:54:00,25.7,16.9,29.98,NE,34,0.0,4.0,69,0.00,,,0.00,Wunderground v.1.15,2013-03-04 01:54:00,
2013-03-03 20:59:00,25.6,16.5,29.98,NE,52,2.0,7.0,68,0.00,,,0.00,Wunderground v.1.15,2013-03-04 01:59:00,
2013-03-03 21:04:00,25.7,16.3,29.99,North,5,3.0,8.0,67,0.00,,,0.00,Wunderground v.1.15,2013-03-04 02:04:00,
2013-03-03 21:10:00,25.8,16.7,29.99,NNE,17,1.0,3.0,68,0.00,,,0.00,Wunderground v.1.15,2013-03-04 02:10:00,
2013-03-03 21:15:00,25.8,16.7,29.99,NNE,17,1.0,3.0,68,0.00,,,0.00,Wunderground v.1.15,2013-03-04 02:15:00,
2013-03-03 21:20:00,25.6,16.2,29.99,North,5,0.0,1.0,67,0.00,,,0.00,Wunderground v.1.15,2013-03-04 02:20:00,
2013-03-03 21:25:00,25.7,16.3,29.99,WNW,288,0.0,5.0,67,0.00,,,0.00,Wunderground v.1.15,2013-03-04 02:25:00,
2013-03-03 21:30:00,25.7,16.3,29.99,NNW,331,1.0,2.0,67,0.00,,,0.00,Wunderground v.1.15,2013-03-04 02:30:00,
2013-03-03 21:35:00,25.7,16.3,29.99,NNW,330,0.0,2.0,67,0.00,,,0.00,Wunderground v.1.15,2013-03-04 02:35:00,
2013-03-03 21:40:00,25.6,16.2,29.99,NNW,330,0.0,0.0,67,0.00,,,0.00,Wunderground v.1.15,2013-03-04 02:40:00,
2013-03-03 21:45:00,25.3,16.2,29.99,NNW,330,0.0,0.0,68,0.00,,,0.00,Wunderground v.1.15,2013-03-04 02:45:00,
2013-03-03 21:51:00,25.2,16.5,29.99,NNW,329,2.0,2.0,69,0.00,,,0.00,Wunderground v.1.15,2013-03-04 02:51:00,
2013-03-03 21:56:00,25.2,16.1,29.99,North,10,2.0,5.0,68,0.00,,,0.00,Wunderground v.1.15,2013-03-04 02:56:00,
2013-03-03 22:01:00,25.2,16.5,29.98,WSW,237,3.0,3.0,69,0.00,,,0.00,Wunderground v.1.15,2013-03-04 03:01:00,
2013-03-03 22:06:00,25.4,16.0,29.98,ENE,64,1.0,9.0,67,0.00,,,0.00,Wunderground v.1.15,2013-03-04 03:06:00,
2013-03-03 22:11:00,25.4,16.3,29.98,NNE,14,3.0,3.0,68,0.00,,,0.00,Wunderground v.1.15,2013-03-04 03:11:00,
2013-03-03 22:16:00,25.4,16.3,29.98,NW,315,0.0,5.0,68,0.00,,,0.00,Wunderground v.1.15,2013-03-04 03:16:00,
2013-03-03 22:21:00,25.4,16.3,29.98,WNW,302,2.0,7.0,68,0.00,,,0.00,Wunderground v.1.15,2013-03-04 03:21:00,
2013-03-03 22:26:00,25.6,16.2,29.98,NW,313,2.0,8.0,67,0.00,,,0.00,Wunderground v.1.15,2013-03-04 03:26:00,
2013-03-03 22:31:00,25.6,16.2,29.99,NNE,28,5.0,5.0,67,0.00,,,0.00,Wunderground v.1.15,2013-03-04 03:31:00,
2013-03-03 22:37:00,25.5,16.1,29.99,ENE,59,8.0,8.0,67,0.00,,,0.00,Wunderground v.1.15,2013-03-04 03:37:00,
2013-03-03 22:42:00,25.4,16.0,29.99,NNW,341,5.0,7.0,67,0.00,,,0.00,Wunderground v.1.15,2013-03-04 03:42:00,
2013-03-03 22:47:00,25.5,16.4,29.98,NNW,333,5.0,9.0,68,0.00,,,0.00,Wunderground v.1.15,2013-03-04 03:47:00,
2013-03-03 22:52:00,25.4,16.3,29.98,NNE,33,1.0,5.0,68,0.00,,,0.00,Wunderground v.1.15,2013-03-04 03:52:00,
2013-03-03 22:57:00,25.3,16.2,29.98,North,355,4.0,5.0,68,0.00,,,0.00,Wunderground v.1.15,2013-03-04 03:57:00,
2013-03-03 23:02:00,25.3,16.2,29.98,NNE,22,1.0,9.0,68,0.00,,,0.00,Wunderground v.1.15,2013-03-04 04:02:00,
2013-03-03 23:07:00,25.3,15.9,29.98,NNE,25,3.0,9.0,67,0.00,,,0.00,Wunderground v.1.15,2013-03-04 04:07:00,
2013-03-03 23:12:00,25.2,16.1,29.98,North,360,2.0,7.0,68,0.00,,,0.00,Wunderground v.1.15,2013-03-04 04:12:00,
2013-03-03 23:17:00,25.1,15.7,29.98,North,10,5.0,7.0,67,0.00,,,0.00,Wunderground v.1.15,2013-03-04 04:17:00,
2013-03-03 23:23:00,25.1,16.0,29.98,North,5,1.0,5.0,68,0.00,,,0.00,Wunderground v.1.15,2013-03-04 04:23:00,
2013-03-03 23:28:00,25.1,15.7,29.98,NNW,336,2.0,7.0,67,0.00,,,0.00,Wunderground v.1.15,2013-03-04 04:28:00,
2013-03-03 23:33:00,25.1,15.7,29.99,NE,54,5.0,5.0,67,0.00,,,0.00,Wunderground v.1.15,2013-03-04 04:33:00,
2013-03-03 23:38:00,25.0,15.6,29.99,NW,326,0.0,6.0,67,0.00,,,0.00,Wunderground v.1.15,2013-03-04 04:38:00,
2013-03-03 23:44:00,24.9,15.5,29.99,NNE,12,3.0,4.0,67,0.00,,,0.00,Wunderground v.1.15,2013-03-04 04:44:00,
2013-03-03 23:49:00,24.9,15.5,29.99,North,350,1.0,7.0,67,0.00,,,0.00,Wunderground v.1.15,2013-03-04 04:49:00,
2013-03-03 23:53:00,24.8,15.7,29.99,NNW,338,1.0,3.0,68,0.00,,,0.00,Wunderground v.1.15,2013-03-04 04:53:00,
2013-03-03 23:59:00,24.7,15.6,29.99,North,355,0.0,6.0,68,0.00,,,0.00,Wunderground v.1.15,2013-03-04 04:59:00,